Temperature
30 31 31 31 31 31 30 30 30 29 29 29 28 28 27 26 26 25 24 23 22 21 20 20 20 19 19 18 18 18 17 17 17 17 17 17 17 17 17 16 16 16 16 16
29 30 30 30 30 30 30 31 30 29 29 29 29 28 27 26 25 24 23 23 22 21 20 19 19 19 18 18 18 18 17 17 17 17 17 16 16 16 16 16 16 16 16 16
27 29 29 28 30 30 30 30 30 28 29 29 28 27 26 25 24 23 23 22 21 20 20 19 19 18 18 18 18 17 17 17 16 16 16 16 16 16 16 16 16 16 15 15
27 27 26 28 30 30 30 29 30 29 29 28 27 26 25 24 24 23 22 21 21 20 19 19 18 18 18 18 18 17 17 16 16 16 16 16 16 16 16 15 15 15 15 15
26 26 26 28 29 29 28 28 29 28 28 28 27 26 24 23 23 22 22 21 20 20 19 19 18 18 17 17 17 17 16 16 16 16 16 16 15 15 15 15 15 15 15 15
26 25 25 26 28 28 28 26 28 27 27 26 26 25 24 23 22 21 21 20 19 19 19 18 18 17 17 17 16 16 16 16 15 15 15 15 15 15 15 15 15 15 14 14
25 25 25 26 27 27 25 25 25 25 25 25 24 23 22 22 21 21 20 20 19 18 18 18 17 17 17 16 16 16 16 15 15 15 15 15 15 14 14 14 14 14 14 14
25 25 24 26 26 25 24 24 24 24 23 23 22 22 21 21 20 20 19 19 18 18 17 17 17 16 16 16 16 16 15 15 15 14 14 14 14 14 14 14 14 14 14 14
25 24 24 24 24 24 23 23 23 22 22 22 22 21 21 20 19 19 18 18 17 17 17 16 16 16 16 16 15 15 15 15 14 14 14 14 14 14 14 14 14 13 14 14
23 24 24 24 23 23 22 22 22 22 21 21 21 21 20 19 19 18 18 17 17 17 16 16 15 15 15 15 15 15 14 14 14 14 14 14 14 14 14 14 14 13 14 14
23 23 23 22 22 22 21 21 21 21 21 21 20 20 19 19 18 18 17 17 17 16 16 15 15 15 15 15 15 14 14 14 14 14 14 14 14 13 13 14 14 14 14 14
22 22 22 21 21 21 20 20 20 20 20 20 19 19 19 18 18 17 17 17 16 16 15 15 15 14 14 14 14 14 14 13 13 13 13 13 13 13 13 13 14 14 14 13
21 21 21 20 20 20 19 19 19 19 19 19 19 18 18 18 17 17 16 16 16 15 15 15 14 14 14 14 14 14 13 13 13 13 13 13 13 13 13 13 13 13 13 13
20 20 19 19 19 19 19 19 19 19 19 18 18 18 17 17 16 16 16 16 15 15 15 14 14 14 14 14 13 13 13 13 13 13 13 13 13 13 13 13 13 13 13 13
19 19 19 19 18 18 18 18 18 18 18 18 18 17 17 16 16 15 15 15 15 14 14 14 14 14 13 13 13 13 13 13 13 13 13 13 13 13 13 13 13 13 13 13
19 18 18 18 18 18 18 18 18 18 17 17 17 16 16 16 15 15 15 15 14 14 14 14 14 13 13 13 13 13 13 13 13 13 13 13 13 13 13 13 13 13 12 12
18 18 18 18 17 17 17 17 17 17 17 17 16 16 15 15 15 15 14 14 14 14 14 13 13 13 13 13 13 13 13 13 13 13 13 13 13 13 13 13 12 12 12 12
17 17 17 17 17 17 17 16 16 16 16 16 15 15 15 14 14 14 14 14 13 13 13 13 13 13 13 13 13 13 13 13 13 13 13 13 13 13 12 12 12 12 12 12
17 16 16 16 16 16 16 16 16 15 15 15 15 15 14 14 14 13 13 13 13 13 13 13 13 12 12 12 13 13 13 13 13 13 12 12 12 12 12 12 12 12 12 12
16 16 16 16 15 15 15 15 15 15 15 14 14 14 14 13 13 13 13 13 13 13 13 12 12 12 12 12 12 13 13 13 13 12 12 12 12 12 12 12 12 12 12 11
15 15 15 15 14 14 14 15 15 14 14 14 14 13 13 13 13 13 13 13 13 13 12 12 12 12 12 12 12 13 13 13 13 12 12 12 12 12 12 12 11 11 11 11
14 14 14 14 14 14 14 14 14 14 14 13 13 13 13 13 13 13 13 12 12 12 12 12 12 12 12 12 12 12 13 12 12 12 12 12 11 11 11 11 11 11 11 11
13 13 13 13 13 13 13 13 13 13 13 13 13 13 13 13 13 13 13 12 12 12 12 12 12 12 12 12 12 12 12 12 12 12 12 11 11 11 11 11 11 11 10 10
13 13 13 13 13 13 13 13 13 13 13 13 13 13 13 13 13 13 13 13 12 12 12 12 12 12 12 12 12 12 12 12 12 12 11 11 11 11 11 11 11 10 10 10
12 12 12 12 12 13 12 13 13 13 13 13 13 13 13 13 13 13 12 12 12 12 12 12 12 12 12 12 12 12 12 12 12 12 11 11 11 11 11 10 10 10 10 10
12 12 12 12 12 12 13 13 13 13 13 13 13 13 13 13 13 12 12 12 12 12 12 12 12 12 12 12 12 12 12 11 11 11 11 11 11 11 10 10 10 10 10 9
12 12 12 12 13 13 13 13 13 13 13 13 13 13 12 12 12 12 12 12 12 12 12 12 12 12 12 12 12 12 11 11 11 11 11 11 10 10 10 10 10 9 9 9
Wind_Speed
13 13 12 11 11 10 11 11 9 7 5 3 3 4 4 4 6 5 4 3 3 3 3 2 2 1 1 1 1 1 1 3 2 2 1 2 2 2 2 3 3 3 3 3
13 13 13 12 12 11 12 10 8 7 4 0 3 4 3 3 4 4 3 3 2 3 3 2 1 1 1 1 1 1 1 1 1 1 2 2 1 1 2 2 2 2 3 3
12 12 12 15 12 10 8 6 6 5 3 1 4 3 4 3 3 4 3 2 2 2 1 2 1 1 1 1 1 1 1 0 1 1 2 2 2 1 2 2 2 2 2 2
11 12 14 9 7 7 7 6 5 3 2 2 3 6 6 3 3 3 2 2 2 2 1 1 2 2 1 0 1 1 0 1 0 1 1 2 2 2 2 2 2 2 2 2
10 11 11 9 5 6 7 5 3 2 1 1 2 3 4 4 4 3 3 3 2 1 2 2 2 2 1 1 1 0 0 1 1 1 2 2 2 2 2 2 2 2 2 2
11 11 11 6 4 7 8 6 3 3 3 2 2 1 2 5 5 3 3 3 3 3 3 3 3 2 1 2 2 1 1 1 1 2 2 2 1 2 2 1 2 2 2 2
13 13 7 4 5 7 6 2 5 5 5 5 4 4 4 5 4 3 3 4 4 3 3 3 3 3 2 2 2 2 1 1 1 1 2 1 1 1 1 2 2 2 2 2
11 13 7 3 3 3 3 5 6 6 6 6 5 5 4 5 6 5 4 4 3 3 3 3 3 3 2 2 2 2 1 1 1 1 2 1 1 1 1 1 2 3 3 3
5 3 2 4 3 4 4 4 4 4 5 4 3 3 4 4 4 3 3 3 2 2 2 2 3 2 2 3 3 3 2 1 1 1 2 1 1 1 1 1 2 2 3 3
4 2 1 2 2 3 3 3 4 3 4 4 4 4 3 3 3 2 2 1 1 1 2 2 2 2 2 2 2 2 2 1 1 0 1 0 1 1 1 2 2 2 2 1
5 3 3 2 3 3 3 3 4 4 4 3 3 3 3 2 2 2 1 2 2 1 1 2 2 2 2 2 2 1 1 1 1 1 1 1 0 1 1 1 1 1 1 1
5 3 4 3 3 3 3 2 3 4 5 5 4 3 2 2 2 1 1 1 2 1 1 1 1 1 1 1 1 1 1 1 1 1 1 1 0 1 4 1 2 2 0 1
3 3 4 3 3 3 3 3 3 4 4 5 4 3 3 2 2 1 1 1 1 1 1 1 1 0 1 0 0 0 1 1 2 2 2 2 1 1 0 1 2 3 2 1
2 2 4 4 4 4 5 5 5 5 4 4 4 3 2 2 2 2 1 1 1 1 1 1 1 1 1 1 1 1 2 2 3 2 2 2 1 1 1 1 0 1 1 2
4 5 6 6 5 6 6 6 6 5 4 4 3 3 2 2 2 2 1 2 1 2 1 1 1 1 1 1 1 2 2 2 2 2 1 1 1 1 1 1 0 1 1 1
6 7 7 7 6 7 7 8 7 5 4 4 3 2 2 2 1 1 1 2 2 2 1 1 1 1 1 2 2 2 2 2 3 2 2 1 1 1 0 0 0 0 0 1
7 8 7 7 8 8 8 7 6 6 5 4 3 3 3 2 2 2 2 2 1 1 1 0 0 1 1 1 2 3 2 2 2 2 1 1 1 1 0 1 1 1 1 1
7 7 6 6 6 6 6 6 6 5 4 4 4 2 2 2 3 3 2 2 1 1 1 1 1 0 1 1 2 3 2 2 2 2 2 1 1 1 0 0 1 0 1 2
5 5 4 4 3 3 4 5 5 4 4 3 3 2 2 2 2 2 2 2 2 2 1 1 1 1 1 1 2 2 2 2 2 1 2 2 2 2 2 1 1 1 1 1
3 3 2 1 1 2 3 3 3 3 3 3 3 2 2 2 2 2 2 2 2 1 1 1 2 2 2 1 3 2 2 2 1 1 2 3 2 2 2 2 1 1 1 1
2 1 0 0 1 2 3 2 2 2 2 3 3 3 2 2 2 2 3 2 1 0 1 2 2 2 1 1 4 3 2 2 1 1 1 2 2 2 2 2 2 2 2 1
2 1 0 0 1 2 2 2 1 1 2 2 3 3 3 3 3 3 3 2 2 1 1 2 1 1 1 3 3 3 2 1 1 1 1 2 2 1 1 2 2 2 1 1
3 2 1 1 1 2 2 1 1 1 2 2 2 3 3 3 3 3 3 2 2 2 2 1 2 2 2 4 3 2 2 1 1 1 1 2 2 1 1 2 2 2 1 1
3 2 2 1 1 1 2 2 2 2 3 3 3 3 3 3 3 3 2 3 4 3 2 3 5 4 4 3 2 2 1 1 1 1 2 2 1 1 1 2 2 2 1 2
3 2 2 1 2 2 2 3 3 3 3 3 3 3 3 2 2 1 1 2 4 4 3 4 7 6 5 3 3 2 2 2 2 2 2 2 2 1 1 1 1 1 1 1
2 2 2 2 2 2 3 3 3 3 3 2 2 1 1 1 1 1 1 2 2 3 3 2 3 4 4 3 3 3 2 2 2 2 2 2 2 2 1 2 2 1 1 1
2 2 2 3 3 3 2 2 3 2 2 2 1 1 1 1 1 1 1 1 1 2 2 2 2 2 3 3 3 2 2 1 1 1 1 1 1 1 1 2 2 1 1 1
Wind_Direction
271 274 279 270 267 261 260 263 268 268 249 198 138 111 108 109 111 111 110 107 103 107 106 106 101 95 116 141 125 136 197 206 206 217 224 239 241 237 236 241 246 253 261 263
271 267 270 266 261 255 256 262 262 266 272 93 114 103 106 105 113 107 91 78 80 96 108 112 103 81 57 50 85 115 160 235 206 207 218 233 236 228 242 246 262 263 259 260
268 261 258 256 257 256 259 270 271 264 271 93 100 86 83 90 93 97 91 81 72 85 95 133 133 100 66 40 112 122 139 231 203 209 216 236 248 234 247 245 250 261 262 256
268 271 262 257 267 270 259 268 269 266 315 37 78 89 89 90 80 81 66 75 76 78 77 62 105 84 42 120 144 144 163 269 287 268 252 250 247 239 241 242 249 253 256 266
263 262 255 260 269 281 278 269 278 272 294 16 92 106 91 71 66 54 62 62 61 65 81 70 62 70 37 10 91 101 343 323 314 275 262 271 254 245 244 242 252 248 245 260
258 260 258 258 281 289 274 251 2 17 15 4 357 286 32 58 63 50 56 65 51 43 58 59 53 67 59 28 45 31 354 334 333 320 293 271 262 256 247 236 234 243 249 250
255 257 252 286 317 304 272 330 33 34 23 18 29 29 43 46 50 58 62 67 63 44 43 53 44 48 52 33 17 6 353 359 352 342 303 284 277 269 236 229 228 233 253 256
249 255 248 325 304 321 43 46 36 32 28 30 39 48 43 51 46 39 60 66 58 43 37 41 36 34 25 20 15 19 25 14 347 331 304 322 342 297 245 225 233 234 241 251
265 266 52 48 51 66 68 52 40 32 22 25 27 26 37 60 66 54 32 58 61 48 40 38 39 35 19 11 14 20 19 12 360 358 345 357 328 289 271 237 238 244 243 242
289 267 350 45 65 50 42 19 14 15 2 1 10 9 26 38 40 51 46 21 33 33 22 23 33 42 47 24 23 26 23 2 336 316 271 318 288 268 267 258 252 255 258 272
266 274 305 321 341 350 15 2 351 349 345 348 347 344 1 3 15 28 27 359 13 22 2 6 35 37 31 25 20 8 7 331 295 303 315 32 17 332 308 344 344 278 291 302
267 286 286 283 308 331 328 321 327 328 326 324 319 316 327 334 340 356 357 356 3 9 355 4 21 33 26 35 52 11 332 318 283 269 281 238 230 11 26 34 81 72 54 227
307 322 317 305 304 302 297 297 298 299 300 301 307 309 315 324 327 336 336 350 337 320 311 309 322 3 359 331 327 332 308 295 275 259 253 244 225 228 302 2 40 39 33 75
307 284 276 278 280 293 291 285 285 285 294 300 295 293 296 304 312 307 299 282 292 297 282 261 274 303 333 349 306 274 265 266 273 257 244 255 250 226 231 254 325 8 7 124
268 262 261 265 265 266 272 272 273 276 289 299 302 296 286 282 288 286 288 281 279 261 255 269 279 331 355 297 266 268 273 260 271 262 254 256 253 240 233 222 204 65 60 64
277 264 259 255 252 263 270 271 272 274 284 292 297 298 289 279 276 273 267 255 255 261 264 303 313 316 315 309 299 282 278 266 264 258 243 249 246 254 271 326 12 85 65 35
267 264 258 253 248 254 264 269 270 272 272 280 282 272 267 269 267 263 266 249 237 233 214 187 314 318 320 328 319 308 305 314 290 260 243 254 295 289 241 261 265 238 168 127
266 265 263 260 256 253 257 266 267 267 266 267 277 266 250 246 253 261 265 263 242 234 228 162 152 259 307 321 314 315 326 325 334 346 4 5 317 313 324 341 321 358 89 116
268 266 266 264 264 260 256 251 249 262 264 251 245 245 238 242 249 256 259 252 242 227 211 178 181 212 250 299 313 293 298 300 314 358 351 306 293 324 331 339 353 17 54 110
294 280 271 281 287 285 282 261 236 229 233 229 228 224 227 240 242 246 242 239 252 260 175 182 214 230 244 312 308 287 282 279 308 3 354 337 338 344 338 340 357 345 317 306
338 329 321 81 348 312 306 288 251 228 222 216 211 213 231 244 239 232 235 233 206 224 227 208 214 225 237 307 284 277 271 283 300 322 304 295 308 330 332 340 344 336 329 320
356 342 292 274 323 310 312 309 257 232 232 215 211 212 222 236 237 222 216 225 208 156 216 223 206 115 2 300 281 281 285 293 325 331 307 298 298 297 302 316 318 316 314 310
358 349 338 305 297 293 300 296 263 241 225 224 225 224 228 247 246 235 216 195 187 193 225 222 153 156 270 277 277 283 299 313 315 314 310 299 289 279 285 294 296 299 305 297
352 334 309 288 261 280 288 284 283 268 238 220 222 223 232 238 241 240 219 167 166 175 212 171 177 204 244 260 272 272 272 283 287 273 275 278 288 280 286 295 298 307 319 318
334 325 310 285 252 253 258 266 261 259 254 235 224 212 220 220 235 228 154 148 151 179 206 186 192 206 226 240 247 262 272 285 288 294 295 300 291 294 311 314 326 350 353 343
312 296 291 277 271 267 268 267 259 258 254 239 231 216 196 178 169 161 155 158 173 200 216 198 193 205 224 234 235 243 240 248 272 285 309 313 329 352 358 351 358 351 345 5
271 273 275 278 276 265 258 260 264 267 271 243 226 233 233 232 200 168 163 155 195 228 237 223 232 238 234 233 231 222 216 220 244 266 302 335 351 357 2 357 356 359 0 23
Height
1464 1459 1459 1461 1461 1461 1464 1465 1472 1473 1474 1472 1472 1475 1479 1482 1484 1487 1490 1491 1493 1494 1495 1496 1497 1498 1498 1499 1499 1499 1500 1500 1500 1500 1500 1500 1500 1500 1500 1500 1500 1500 1500 1500
1470 1462 1461 1463 1461 1460 1461 1460 1464 1468 1471 1468 1472 1476 1479 1482 1484 1486 1489 1491 1492 1493 1494 1495 1495 1496 1496 1497 1497 1497 1497 1498 1498 1498 1497 1497 1498 1497 1497 1497 1497 1497 1497 1496
1476 1465 1465 1473 1461 1460 1460 1460 1464 1471 1470 1468 1472 1476 1480 1483 1484 1487 1489 1490 1491 1492 1493 1493 1494 1494 1494 1495 1495 1495 1495 1495 1495 1495 1495 1495 1495 1495 1494 1494 1494 1494 1494 1493
1475 1475 1486 1469 1455 1456 1459 1460 1461 1464 1467 1469 1473 1477 1481 1484 1485 1486 1488 1489 1490 1491 1491 1492 1492 1493 1493 1493 1493 1493 1493 1493 1492 1492 1492 1492 1492 1491 1492 1492 1491 1491 1491 1491
1477 1481 1476 1465 1459 1460 1466 1466 1463 1465 1468 1471 1474 1476 1481 1483 1484 1486 1487 1488 1489 1490 1490 1490 1490 1491 1491 1491 1491 1491 1490 1490 1490 1490 1489 1489 1489 1489 1489 1489 1489 1489 1488 1488
1476 1484 1485 1472 1463 1462 1464 1471 1466 1467 1469 1472 1473 1477 1482 1483 1484 1486 1487 1487 1488 1489 1488 1488 1489 1489 1489 1489 1489 1489 1488 1488 1488 1487 1487 1487 1486 1486 1486 1486 1486 1486 1486 1486
1476 1477 1474 1468 1466 1465 1477 1478 1471 1471 1473 1474 1477 1480 1483 1483 1484 1485 1486 1487 1487 1487 1488 1488 1488 1488 1488 1487 1487 1487 1487 1486 1486 1485 1485 1485 1484 1484 1484 1484 1484 1484 1484 1484
1473 1478 1480 1468 1467 1472 1476 1475 1475 1475 1476 1478 1479 1481 1482 1483 1484 1485 1486 1486 1486 1487 1487 1487 1487 1487 1486 1486 1486 1486 1485 1484 1484 1484 1483 1483 1483 1482 1482 1482 1481 1481 1481 1481
1470 1474 1472 1471 1472 1474 1475 1476 1477 1478 1479 1479 1480 1482 1482 1483 1484 1485 1486 1486 1486 1486 1486 1486 1486 1485 1485 1485 1485 1484 1483 1483 1482 1482 1482 1481 1481 1481 1480 1480 1479 1479 1479 1479
1470 1469 1471 1473 1474 1476 1477 1478 1478 1479 1480 1481 1481 1482 1483 1483 1484 1485 1484 1485 1485 1485 1485 1485 1484 1484 1484 1483 1483 1482 1482 1482 1481 1480 1480 1480 1480 1479 1478 1478 1478 1478 1477 1477
1471 1472 1472 1473 1475 1476 1477 1479 1479 1480 1481 1481 1482 1482 1482 1483 1483 1483 1483 1483 1483 1483 1483 1483 1483 1483 1482 1482 1482 1481 1481 1480 1480 1479 1478 1478 1478 1477 1477 1477 1477 1476 1476 1476
1471 1473 1474 1475 1476 1477 1478 1479 1480 1480 1481 1481 1481 1481 1481 1482 1482 1482 1482 1482 1482 1482 1482 1482 1481 1481 1481 1480 1480 1480 1479 1479 1479 1478 1477 1477 1477 1476 1475 1475 1475 1475 1475 1475
1471 1473 1474 1475 1475 1477 1478 1478 1479 1480 1480 1480 1480 1480 1480 1481 1481 1480 1480 1480 1480 1480 1480 1480 1480 1480 1479 1479 1479 1478 1478 1477 1477 1476 1476 1475 1475 1474 1473 1474 1474 1473 1473 1473
1471 1473 1473 1474 1475 1476 1476 1477 1478 1478 1478 1478 1478 1478 1479 1479 1479 1479 1479 1479 1479 1479 1478 1478 1478 1478 1478 1478 1477 1477 1476 1476 1475 1475 1474 1474 1474 1473 1473 1472 1472 1471 1471 1470
1470 1471 1472 1472 1473 1474 1475 1476 1475 1475 1476 1476 1476 1476 1477 1477 1477 1477 1477 1477 1477 1477 1477 1476 1476 1476 1476 1476 1476 1475 1475 1474 1474 1473 1473 1473 1472 1472 1472 1471 1470 1470 1469 1469
1468 1469 1469 1470 1470 1471 1472 1473 1473 1473 1474 1474 1474 1474 1474 1474 1474 1475 1475 1475 1475 1475 1474 1474 1474 1474 1474 1474 1474 1474 1473 1473 1472 1472 1471 1471 1470 1470 1470 1470 1469 1469 1468 1468
1465 1465 1465 1466 1467 1468 1469 1470 1470 1471 1471 1472 1472 1472 1472 1472 1472 1472 1473 1473 1473 1473 1473 1473 1473 1473 1473 1473 1473 1473 1473 1472 1471 1471 1470 1470 1469 1469 1469 1469 1468 1468 1468 1467
1462 1462 1462 1463 1463 1464 1465 1467 1467 1468 1468 1469 1469 1469 1469 1469 1469 1470 1470 1471 1471 1471 1471 1471 1471 1471 1471 1471 1471 1471 1471 1471 1470 1470 1469 1469 1469 1468 1467 1468 1468 1467 1467 1466
1459 1459 1459 1460 1461 1462 1463 1464 1464 1465 1465 1466 1466 1466 1466 1467 1467 1467 1468 1469 1469 1469 1470 1470 1470 1470 1470 1470 1470 1470 1470 1470 1470 1469 1469 1468 1467 1467 1467 1467 1466 1466 1465 1465
1456 1457 1457 1458 1459 1460 1460 1461 1461 1462 1462 1463 1463 1464 1464 1465 1465 1465 1466 1466 1467 1467 1468 1468 1469 1469 1469 1469 1469 1469 1469 1469 1469 1468 1467 1467 1467 1466 1466 1465 1465 1465 1464 1464
1455 1455 1456 1457 1458 1458 1458 1458 1459 1459 1460 1460 1461 1461 1462 1462 1463 1463 1464 1465 1465 1465 1466 1467 1467 1467 1468 1468 1468 1468 1468 1468 1468 1467 1467 1467 1466 1465 1464 1464 1463 1463 1463 1462
1454 1454 1454 1455 1456 1456 1457 1457 1457 1458 1458 1459 1459 1459 1460 1460 1461 1461 1462 1463 1463 1463 1464 1465 1465 1466 1466 1466 1466 1467 1467 1466 1466 1465 1465 1465 1464 1463 1463 1462 1462 1462 1461 1460
1454 1454 1454 1454 1455 1456 1456 1456 1457 1457 1457 1457 1457 1458 1458 1458 1459 1460 1460 1461 1461 1461 1462 1463 1463 1464 1464 1465 1465 1465 1465 1464 1464 1464 1463 1463 1462 1462 1461 1460 1460 1460 1459 1459
1454 1454 1454 1454 1455 1455 1455 1456 1456 1456 1456 1456 1456 1456 1456 1457 1457 1458 1458 1458 1459 1460 1460 1461 1461 1462 1462 1463 1463 1463 1463 1463 1462 1462 1461 1461 1460 1460 1459 1459 1458 1457 1457 1456
1454 1453 1453 1453 1454 1454 1455 1455 1455 1455 1455 1455 1455 1455 1455 1455 1456 1456 1456 1456 1457 1458 1459 1459 1460 1460 1461 1461 1461 1461 1461 1461 1460 1460 1460 1459 1458 1458 1457 1456 1455 1455 1454 1454
1453 1453 1452 1452 1453 1453 1454 1454 1454 1454 1454 1454 1454 1454 1454 1454 1454 1455 1455 1455 1456 1457 1457 1458 1458 1459 1459 1459 1459 1459 1459 1459 1458 1458 1458 1457 1456 1456 1455 1455 1454 1453 1452 1452
1453 1452 1452 1451 1452 1452 1452 1452 1453 1453 1453 1453 1453 1453 1453 1453 1453 1454 1454 1454 1455 1455 1456 1456 1457 1457 1457 1457 1458 1458 1457 1457 1457 1456 1456 1455 1454 1454 1453 1452 1452 1451 1450 1449